Key West NAF, FL

3:42 AM EDT on March 27, 2017 (GMT -0400)
Key West Naval Air Station

Weather History for KNQX - May, 2014

Change the Weather History Date:

Wednesday, May 14, 2014

  Actual Average Record
Temperature  
Mean Temperature 82 °F -  
Max Temperature 87 °F 85 °F 89 °F (2007)
Min Temperature 77 °F 75 °F 68 °F (1960)
Cooling Degree Days 16    
Growing Degree Days 32 (Base 50)    
Moisture  
Dew Point 74 °F    
Average Humidity 79    
Maximum Humidity 90    
Minimum Humidity 67    
Precipitation  
Precipitation 0.06 in - - ()
Sea Level Pressure  
Sea Level Pressure 29.97 in    
Wind  
Wind Speed 16 mph (ESE)    
Max Wind Speed 23 mph    
Max Gust Speed 28 mph    
Visibility 10 miles    
Events Rain    
Averages and records for this station are not official NWS values.
T = Trace of Precipitation, MM = Missing Value Source: NWS Daily Summary

Daily Weather History Graph

Daily Weather History Graph

Search for Another Location

Airport or City:

Trip Planner

Search our weather history database for the weather conditions in past years. The results will help you decide how hot, cold, wet, or windy it might be!

Date:

Astronomy

May. 14, 2014 Rise Set
Actual Time 6:43 AM EDT 8:02 PM EDT
Civil Twilight 6:19 AM EDT 8:27 PM EDT
Nautical Twilight 5:49 AM EDT 8:56 PM EDT
Astronomical Twilight 5:19 AM EDT 9:27 PM EDT
Moon 8:09 PM EDT (5/14) 6:36 AM EDT (5/14)
Length of Visible Light 14h 08m
Length of Day
13h 19m
Full, 100% of the Moon is Illuminated
May 14
Full
May 14
Full
May 21
Last Quarter
May 28
New
Jun 5
First Quarter

Hourly Weather History & Observations

Time (EDT) Temp. Heat Index Dew Point Humidity Pressure Visibility Wind Dir Wind Speed Gust Speed Precip Events Conditions
12:53 AM 79.0 °F - 73.0 °F 82% 29.98 in 10.0 mi East 15.0 mph 24.2 mph N/A   Partly Cloudy
1:53 AM 80.1 °F 84.2 °F 73.0 °F 79% 29.98 in 10.0 mi ESE 15.0 mph - N/A   Mostly Cloudy
2:53 AM 80.1 °F 84.2 °F 73.0 °F 79% 29.96 in 10.0 mi East 16.1 mph - N/A   Mostly Cloudy
3:53 AM 77.0 °F - 72.0 °F 84% 29.94 in 10.0 mi East 10.4 mph - N/A   Partly Cloudy
4:53 AM 79.0 °F - 73.0 °F 82% 29.94 in 10.0 mi ESE 12.7 mph - N/A   Partly Cloudy
5:53 AM 79.0 °F - 73.9 °F 84% 29.96 in 10.0 mi East 10.4 mph - N/A   Mostly Cloudy
6:03 AM 78.1 °F - 75.0 °F 90% 29.96 in 5.0 mi East 23.0 mph - 0.02 in Rain Light Rain
6:16 AM 78.1 °F - 75.0 °F 90% 29.96 in 8.0 mi East 15.0 mph - 0.06 in   Mostly Cloudy
6:53 AM 77.0 °F - 73.0 °F 88% 29.96 in 10.0 mi ESE 12.7 mph - 0.06 in   Scattered Clouds
7:53 AM 79.0 °F - 73.9 °F 84% 29.97 in 10.0 mi East 15.0 mph - N/A   Scattered Clouds
8:53 AM 80.1 °F 85.1 °F 75.0 °F 85% 29.99 in 10.0 mi ESE 12.7 mph - N/A   Mostly Cloudy
9:53 AM 82.0 °F 88.6 °F 75.0 °F 79% 29.99 in 10.0 mi ESE 19.6 mph - N/A   Partly Cloudy
10:53 AM 84.0 °F 91.9 °F 75.0 °F 74% 30.01 in 10.0 mi ESE 19.6 mph - N/A   Scattered Clouds
11:53 AM 84.9 °F 93.3 °F 75.0 °F 72% 30.01 in 10.0 mi SE 20.7 mph 26.5 mph N/A   Scattered Clouds
12:53 PM 84.0 °F 91.9 °F 75.0 °F 74% 29.99 in 10.0 mi ESE 21.9 mph 27.6 mph N/A   Partly Cloudy
1:35 PM 84.9 °F 94.1 °F 75.9 °F 74% 29.98 in 10.0 mi ESE 16.1 mph - N/A   Mostly Cloudy
1:53 PM 84.0 °F 92.6 °F 75.9 °F 76% 29.98 in 10.0 mi ESE 17.3 mph - N/A   Mostly Cloudy
2:04 PM 86.0 °F 93.8 °F 73.9 °F 67% 29.98 in 10.0 mi SE 18.4 mph - N/A   Scattered Clouds
2:53 PM 86.0 °F 93.8 °F 73.9 °F 67% 29.96 in 10.0 mi SE 19.6 mph - N/A   Scattered Clouds
3:53 PM 82.9 °F 90.2 °F 75.0 °F 77% 29.95 in 10.0 mi ESE 19.6 mph - N/A   Scattered Clouds
4:53 PM 84.0 °F 91.2 °F 73.9 °F 72% 29.94 in 10.0 mi East 17.3 mph - N/A   Mostly Cloudy
5:53 PM 82.9 °F 90.2 °F 75.0 °F 77% 29.93 in 10.0 mi ESE 16.1 mph - N/A   Mostly Cloudy
6:53 PM 82.0 °F 88.6 °F 75.0 °F 79% 29.94 in 10.0 mi ESE 17.3 mph - N/A   Mostly Cloudy
7:53 PM 81.0 °F 86.2 °F 73.9 °F 79% 29.95 in 10.0 mi ESE 13.8 mph - N/A   Mostly Cloudy
8:53 PM 80.1 °F 84.5 °F 73.9 °F 81% 29.97 in 10.0 mi ESE 15.0 mph - N/A   Mostly Cloudy
9:53 PM 80.1 °F 84.5 °F 73.9 °F 81% 29.99 in 10.0 mi ESE 16.1 mph - N/A   Mostly Cloudy
10:53 PM 81.0 °F 86.2 °F 73.9 °F 79% 30.00 in 10.0 mi SE 16.1 mph - N/A   Mostly Cloudy
11:53 PM 81.0 °F 86.2 °F 73.9 °F 79% 29.99 in 10.0 mi SE 16.1 mph - N/A   Partly Cloudy